Regional Weather Roundup
Issued by NWS Cleveland, OH

Home | Current Version | Previous Version | Graphics & Text | Print | Product List | Glossary On
Versions: 1 2 3 4 5 6 7 8 9 10 11 12 13 14 15 16 17 18 19 20 21 22 23 24 25 26 27 28 29 30 31 32 33 34 35 36 37 38 39 40 41 42 43 44 45 46 47 48 49 50
000
ASUS41 KCLE 291502
RWRCLE
OHIO REGIONAL WEATHER ROUNDUP
NATIONAL WEATHER SERVICE CLEVELAND, OH
1100 AM EDT THU SEP 29 2016

NOTE: "FAIR" INDICATES FEW OR NO CLOUDS BELOW 12,000 FEET WITH NO
SIGNIFICANT WEATHER AND/OR OBSTRUCTIONS TO VISIBILITY.

OHZ001>008-015>018-024>027-034-035-043-044-291600-
   NORTHWEST OHIO

CITY           SKY/WX    TMP DP  RH WIND       PRES   REMARKS
DEFIANCE       MOSUNNY   63  55  75 E6        30.12R
FINDLAY        CLOUDY    61  55  81 E9        30.11R
TOLEDO EXPRESS PTSUNNY   57  56  96 NE3       30.13R
TOLEDO EXEC    CLOUDY    59  57  93 SE5       30.14R
LIMA           PTSUNNY   62  56  80 E7        30.10R
$$

OHZ009>014-019>023-028>033-038-089-291600-
   NORTHEAST OHIO

CITY           SKY/WX    TMP DP  RH WIND       PRES   REMARKS
CLE-HOPKINS    CLOUDY    65  59  81 NW5       30.14R
CLE-LAKEFRONT  CLOUDY    67  61  81 NE7       30.12R
CUY CO. ARPT   CLOUDY    66  63  88 SE16      30.13R
LORAIN-ELYRIA  CLOUDY    59  55  87 N3        30.13R
ASHTABULA      CLOUDY    64  59  83 E14       30.17R
AKRON-CANTON   CLOUDY    64  58  80 SE10      30.11R
WOOSTER        CLOUDY    60  56  86 CALM      30.12R
MANSFIELD      CLOUDY    60  55  83 NE3       30.11R
YOUNGSTOWN     CLOUDY    62  56  80 E12G23    30.13R
$$

OHZ042-051>053-060>062-070>072-077>081-291600-
  SOUTHWEST OHIO

CITY           SKY/WX    TMP DP  RH WIND       PRES   REMARKS
CINC-COVINGTON CLOUDY    58  52  80 NE5       30.07R
CINC-LUNKEN    CLOUDY    58  55  90 NE7       30.08R
HAMILTON       CLOUDY    57  53  86 E3        30.09R
DAYTON         PTSUNNY   59  54  83 E6        30.10R
WRIGHT-PAT AFB NOT AVBL
DAYTON GENERAL MOSUNNY   58  52  80 VRB7      30.07S
WILMINGTON     CLOUDY    57  53  86 N5        30.07R
$$

OHZ036-037-039>041-045>050-054>059-063>069-073>076-082>088-291600-
  CENTRAL AND SOUTHEAST OHIO

CITY           SKY/WX    TMP DP  RH WIND       PRES   REMARKS
COLUMBUS       CLOUDY    62  58  86 E8        30.08R
OSU AIRPORT    PTSUNNY   62  57  83 SE6       30.08R
BOLTON FIELD   CLOUDY    63  57  82 E3        30.08R
RICKENBACK AFB PTSUNNY   60  57  89 E6        30.07R
NEWARK         PTSUNNY   63  56  78 VRB5      30.08S
MARION         CLOUDY    60  55  83 E5        30.11R
LANCASTER      CLOUDY    62  56  80 E6        30.07S
ZANESVILLE     PTSUNNY   59  56  89 N5        30.08S
NEW PHILLY     CLOUDY    60  58  92 CALM      30.11R
$$




USA.gov is the U.S. government's official web portal to all federal, state and local government web resources and services.